Jacksonville Craig, FL

5:27 PM EST on November 19, 2017 (GMT -0500)
Craig Municipal

Weather History for KCRG - April, 2013

Change the Weather History Date:

Saturday, April 13, 2013

  Actual Average Record
Temperature  
Mean Temperature 70 °F -  
Max Temperature 78 °F 75 °F 91 °F (2001)
Min Temperature 60 °F 55 °F 48 °F (1998)
Cooling Degree Days 5    
Growing Degree Days 20 (Base 50)    
Moisture  
Dew Point 53 °F    
Average Humidity 57    
Maximum Humidity 83    
Minimum Humidity 32    
Precipitation  
Precipitation 0.00 in - - ()
Sea Level Pressure  
Sea Level Pressure 29.95 in    
Wind  
Wind Speed 6 mph (North)    
Max Wind Speed 13 mph    
Max Gust Speed -    
Visibility 10 miles    
Events Rain    
Averages and records for this station are not official NWS values.
T = Trace of Precipitation, MM = Missing Value Source: NWS Daily Summary

Daily Weather History Graph

Daily Weather History Graph

Search for Another Location

Airport or City:

Trip Planner

Search our weather history database for the weather conditions in past years. The results will help you decide how hot, cold, wet, or windy it might be!

Date:

Astronomy

Apr. 13, 2013 Rise Set
Actual Time 7:00 AM EDT 7:52 PM EDT
Civil Twilight 6:36 AM EDT 8:17 PM EDT
Nautical Twilight 6:07 AM EDT 8:46 PM EDT
Astronomical Twilight 5:37 AM EDT 9:15 PM EDT
Moon 9:02 AM EDT (4/13) 11:03 PM EDT (4/13)
Length of Visible Light 13h 40m
Length of Day
12h 51m
Waxing Crescent, 10% of the Moon is Illuminated
Apr 13
Waxing Crescent
Apr 18
First Quarter
Apr 25
Full
May 2
Last Quarter
May 9
New

Hourly Weather History & Observations

Time (EDT) Temp. Dew Point Humidity Pressure Visibility Wind Dir Wind Speed Gust Speed Precip Events Conditions
12:53 AM 73.0 °F 66.0 °F 79% 29.89 in 9.0 mi NW 10.4 mph - 0.00 in Rain Light Rain
1:25 AM 71.6 °F 66.2 °F 83% 29.90 in 10.0 mi NW 5.8 mph - 0.00 in   Overcast
1:53 AM 72.0 °F 66.0 °F 81% 29.90 in 10.0 mi West 4.6 mph - 0.00 in   Overcast
2:04 AM 71.6 °F 64.4 °F 78% 29.89 in 10.0 mi WSW 3.5 mph - N/A   Overcast
2:48 AM 73.4 °F 64.4 °F 73% 29.89 in 10.0 mi WSW 3.5 mph - N/A   Overcast
2:53 AM 73.0 °F 64.9 °F 76% 29.89 in 10.0 mi WSW 4.6 mph - N/A   Overcast
3:53 AM 72.0 °F 64.9 °F 78% 29.89 in 10.0 mi NNW 4.6 mph - N/A   Overcast
4:53 AM 70.0 °F 55.0 °F 59% 29.90 in 10.0 mi NNW 12.7 mph - N/A   Overcast
5:53 AM 69.1 °F 48.0 °F 47% 29.92 in 10.0 mi North 9.2 mph - N/A   Partly Cloudy
6:53 AM 66.0 °F 46.9 °F 50% 29.94 in 10.0 mi North 8.1 mph - N/A   Clear
7:53 AM 64.9 °F 45.0 °F 48% 29.96 in 10.0 mi North 5.8 mph - N/A   Partly Cloudy
8:53 AM 66.0 °F 46.0 °F 48% 30.00 in 10.0 mi North 5.8 mph - N/A   Clear
9:53 AM 68.0 °F 46.0 °F 45% 30.01 in 10.0 mi NNW 6.9 mph - N/A   Partly Cloudy
10:53 AM 71.1 °F 44.1 °F 38% 30.02 in 10.0 mi North 6.9 mph - N/A   Clear
11:53 AM 73.0 °F 43.0 °F 34% 30.02 in 10.0 mi NNW 5.8 mph - N/A   Clear
12:53 PM 75.0 °F 44.1 °F 33% 30.01 in 10.0 mi Variable 4.6 mph - N/A   Clear
1:53 PM 77.0 °F 45.0 °F 32% 29.99 in 10.0 mi NNW 8.1 mph - N/A   Clear
2:53 PM 77.0 °F 48.9 °F 37% 29.97 in 10.0 mi East 10.4 mph - N/A   Clear
3:53 PM 77.0 °F 48.0 °F 36% 29.94 in 10.0 mi ESE 3.5 mph - N/A   Clear
4:53 PM 77.0 °F 48.0 °F 36% 29.93 in 10.0 mi ESE 6.9 mph - N/A   Clear
5:53 PM 75.9 °F 48.9 °F 38% 29.94 in 10.0 mi East 6.9 mph - N/A   Clear
6:53 PM 73.0 °F 50.0 °F 44% 29.95 in 10.0 mi East 8.1 mph - N/A   Clear
7:53 PM 68.0 °F 52.0 °F 56% 29.97 in 10.0 mi ESE 3.5 mph - N/A   Clear
8:53 PM 63.0 °F 53.1 °F 70% 29.98 in 10.0 mi East 3.5 mph - N/A   Clear
9:53 PM 63.0 °F 55.0 °F 75% 29.99 in 10.0 mi Calm Calm - N/A   Clear
10:53 PM 63.0 °F 55.0 °F 75% 30.01 in 10.0 mi Calm Calm - N/A   Clear
11:53 PM 60.1 °F 55.0 °F 83% 30.03 in 10.0 mi Calm Calm - N/A   Clear